"Time","Value","Approval","myLocation"
"2023-05-07 00:00",2.92044318181818,"Approved","OW450"
"2023-05-07 01:00",2.91944381313131,"Approved","OW450"
"2023-05-07 02:00",2.91944444444444,"Approved","OW450"
"2023-05-07 03:00",2.91944507575758,"Approved","OW450"
"2023-05-07 04:00",2.92044570707071,"Approved","OW450"
"2023-05-07 05:00",2.92044633838384,"Approved","OW450"
"2023-05-07 06:00",2.92044696969697,"Approved","OW450"
"2023-05-07 07:00",2.9214476010101,"Approved","OW450"
"2023-05-07 08:00",2.92144823232323,"Approved","OW450"
"2023-05-07 09:00",2.92244886363636,"Approved","OW450"
"2023-05-07 10:00",2.92244949494949,"Approved","OW450"
"2023-05-07 11:00",2.92245012626263,"Approved","OW450"
"2023-05-07 12:00",2.92345075757576,"Approved","OW450"
"2023-05-07 13:00",2.92445138888889,"Approved","OW450"
"2023-05-07 14:00",2.92445202020202,"Approved","OW450"
"2023-05-07 15:00",2.92545265151515,"Approved","OW450"
"2023-05-07 16:00",2.92645328282828,"Approved","OW450"
"2023-05-07 17:00",2.92845391414141,"Approved","OW450"
"2023-05-07 18:00",2.92845454545455,"Approved","OW450"
"2023-05-07 19:00",2.93045517676768,"Approved","OW450"
"2023-05-07 20:00",2.93045580808081,"Approved","OW450"
"2023-05-07 21:00",2.93145643939394,"Approved","OW450"
"2023-05-07 22:00",2.93145707070707,"Approved","OW450"
"2023-05-07 23:00",2.9304577020202,"Approved","OW450"
"2023-05-08 00:00",2.93045833333333,"Approved","OW450"
"2023-05-08 01:00",2.93045896464646,"Approved","OW450"
"2023-05-08 02:00",2.9304595959596,"Approved","OW450"
"2023-05-08 03:00",2.92946022727273,"Approved","OW450"
"2023-05-08 04:00",2.93046085858586,"Approved","OW450"
"2023-05-08 05:00",2.93146148989899,"Approved","OW450"
"2023-05-08 06:00",2.93246212121212,"Approved","OW450"
"2023-05-08 07:00",2.93246275252525,"Approved","OW450"
"2023-05-08 08:00",2.93346338383838,"Approved","OW450"
"2023-05-08 09:00",2.93346401515152,"Approved","OW450"
"2023-05-08 10:00",2.93346464646465,"Approved","OW450"
"2023-05-08 11:00",2.93346527777778,"Approved","OW450"
"2023-05-08 12:00",2.93346590909091,"Approved","OW450"
"2023-05-08 13:00",2.93446654040404,"Approved","OW450"
"2023-05-08 14:00",2.93546717171717,"Approved","OW450"
"2023-05-08 15:00",2.9364678030303,"Approved","OW450"
"2023-05-08 16:00",2.93646843434343,"Approved","OW450"
"2023-05-08 17:00",2.93646906565657,"Approved","OW450"
"2023-05-08 18:00",2.9374696969697,"Approved","OW450"
"2023-05-08 19:00",2.93847032828283,"Approved","OW450"
"2023-05-08 20:00",2.93947095959596,"Approved","OW450"
"2023-05-08 21:00",2.93947159090909,"Approved","OW450"
"2023-05-08 22:00",2.94047222222222,"Approved","OW450"
"2023-05-08 23:00",2.94147285353535,"Approved","OW450"
"2023-05-09 00:00",2.94147348484848,"Approved","OW450"
"2023-05-09 01:00",2.94247411616162,"Approved","OW450"
"2023-05-09 02:00",2.94247474747475,"Approved","OW450"
"2023-05-09 03:00",2.94247537878788,"Approved","OW450"
"2023-05-09 04:00",2.94347601010101,"Approved","OW450"
"2023-05-09 05:00",2.94447664141414,"Approved","OW450"
"2023-05-09 06:00",2.94647727272727,"Approved","OW450"
"2023-05-09 07:00",2.9464779040404,"Approved","OW450"
"2023-05-09 08:00",2.94747853535354,"Approved","OW450"
"2023-05-09 09:00",2.94647916666667,"Approved","OW450"
"2023-05-09 10:00",2.9484797979798,"Approved","OW450"
"2023-05-09 11:00",2.94948042929293,"Approved","OW450"
"2023-05-09 12:00",2.95048106060606,"Approved","OW450"
"2023-05-09 13:00",2.95148169191919,"Approved","OW450"
"2023-05-09 14:00",2.95148232323232,"Approved","OW450"
"2023-05-09 15:00",2.95348295454545,"Approved","OW450"
"2023-05-09 16:00",2.95448358585859,"Approved","OW450"
"2023-05-09 17:00",2.95448421717172,"Approved","OW450"
"2023-05-09 18:00",2.95648484848485,"Approved","OW450"
"2023-05-09 19:00",2.95748547979798,"Approved","OW450"
"2023-05-09 20:00",2.95848611111111,"Approved","OW450"
"2023-05-09 21:00",2.95748674242424,"Approved","OW450"
"2023-05-09 22:00",2.95848737373737,"Approved","OW450"
"2023-05-09 23:00",2.95748800505051,"Approved","OW450"
"2023-05-10 00:00",2.95848863636364,"Approved","OW450"
"2023-05-10 01:00",2.95848926767677,"Approved","OW450"
"2023-05-10 02:00",2.9574898989899,"Approved","OW450"
"2023-05-10 03:00",2.95849053030303,"Approved","OW450"
"2023-05-10 04:00",2.95949116161616,"Approved","OW450"
"2023-05-10 05:00",2.95949179292929,"Approved","OW450"
"2023-05-10 06:00",2.96049242424242,"Approved","OW450"
"2023-05-10 07:00",2.96049305555556,"Approved","OW450"
"2023-05-10 08:00",2.96049368686869,"Approved","OW450"
"2023-05-10 09:00",2.96149431818182,"Approved","OW450"
"2023-05-10 10:00",2.96149494949495,"Approved","OW450"
"2023-05-10 11:00",2.96149558080808,"Approved","OW450"
"2023-05-10 12:00",2.96249621212121,"Approved","OW450"
"2023-05-10 13:00",2.96249684343434,"Approved","OW450"
"2023-05-10 14:00",2.96249747474747,"Approved","OW450"
"2023-05-10 15:00",2.96349810606061,"Approved","OW450"
"2023-05-10 16:00",2.96449873737374,"Approved","OW450"
"2023-05-10 17:00",2.96649936868687,"Approved","OW450"
"2023-05-10 18:00",2.9675,"Approved","OW450"
"2023-05-10 19:00",2.96850063131313,"Approved","OW450"
"2023-05-10 20:00",2.97250126262626,"Approved","OW450"
"2023-05-10 21:00",2.97750189393939,"Approved","OW450"
"2023-05-10 22:00",2.97950252525253,"Approved","OW450"
"2023-05-10 23:00",2.97750315656566,"Approved","OW450"
"2023-05-11 00:00",2.97950378787879,"Approved","OW450"
"2023-05-11 01:00",2.97850441919192,"Approved","OW450"
"2023-05-11 02:00",2.97650505050505,"Approved","OW450"
"2023-05-11 03:00",2.97550568181818,"Approved","OW450"
"2023-05-11 04:00",2.97550631313131,"Approved","OW450"
"2023-05-11 05:00",2.97550694444444,"Approved","OW450"
"2023-05-11 06:00",2.97550757575758,"Approved","OW450"
"2023-05-11 07:00",2.97550820707071,"Approved","OW450"
"2023-05-11 08:00",2.97650883838384,"Approved","OW450"
"2023-05-11 09:00",2.97650946969697,"Approved","OW450"
"2023-05-11 10:00",2.9765101010101,"Approved","OW450"
"2023-05-11 11:00",2.97751073232323,"Approved","OW450"
"2023-05-11 12:00",2.97851136363636,"Approved","OW450"
"2023-05-11 13:00",2.97851199494949,"Approved","OW450"
"2023-05-11 14:00",2.97951262626263,"Approved","OW450"
"2023-05-11 15:00",2.98051325757576,"Approved","OW450"
"2023-05-11 16:00",2.98151388888889,"Approved","OW450"
"2023-05-11 17:00",2.98251452020202,"Approved","OW450"
"2023-05-11 18:00",2.98451515151515,"Approved","OW450"
"2023-05-11 19:00",2.98451578282828,"Approved","OW450"
"2023-05-11 20:00",2.98651641414141,"Approved","OW450"
"2023-05-11 21:00",2.99051704545455,"Approved","OW450"
"2023-05-11 22:00",2.98951767676768,"Approved","OW450"
"2023-05-11 23:00",2.98851830808081,"Approved","OW450"
"2023-05-12 00:00",2.98751893939394,"Approved","OW450"
"2023-05-12 01:00",2.98751957070707,"Approved","OW450"
"2023-05-12 02:00",2.9865202020202,"Approved","OW450"
"2023-05-12 03:00",2.98752083333333,"Approved","OW450"
"2023-05-12 04:00",2.98752146464646,"Approved","OW450"
"2023-05-12 05:00",2.9875220959596,"Approved","OW450"
"2023-05-12 06:00",2.98852272727273,"Approved","OW450"
"2023-05-12 07:00",2.98852335858586,"Approved","OW450"
"2023-05-12 08:00",2.98952398989899,"Approved","OW450"
"2023-05-12 09:00",2.99052462121212,"Approved","OW450"
"2023-05-12 10:00",2.99052525252525,"Approved","OW450"
"2023-05-12 11:00",2.99052588383838,"Approved","OW450"
"2023-05-12 12:00",2.99152651515152,"Approved","OW450"
"2023-05-12 13:00",2.99252714646465,"Approved","OW450"
"2023-05-12 14:00",2.99252777777778,"Approved","OW450"
"2023-05-12 15:00",2.99352840909091,"Approved","OW450"
"2023-05-12 16:00",2.99852904040404,"Approved","OW450"
"2023-05-12 17:00",3.00052967171717,"Approved","OW450"
"2023-05-12 18:00",2.9995303030303,"Approved","OW450"
"2023-05-12 19:00",2.99853093434343,"Approved","OW450"
"2023-05-12 20:00",3.00053156565657,"Approved","OW450"
"2023-05-12 21:00",3.0035321969697,"Approved","OW450"
"2023-05-12 22:00",3.00353282828283,"Approved","OW450"
"2023-05-12 23:00",3.00253345959596,"Approved","OW450"
"2023-05-13 00:00",3.00153409090909,"Approved","OW450"
"2023-05-13 01:00",3.00253472222222,"Approved","OW450"
"2023-05-13 02:00",3.00153535353535,"Approved","OW450"
"2023-05-13 03:00",3.00153598484849,"Approved","OW450"
"2023-05-13 04:00",3.00053661616162,"Approved","OW450"
"2023-05-13 05:00",3.00153724747475,"Approved","OW450"
"2023-05-13 06:00",3.00253787878788,"Approved","OW450"
"2023-05-13 07:00",3.00253851010101,"Approved","OW450"
"2023-05-13 08:00",3.00353914141414,"Approved","OW450"
"2023-05-13 09:00",3.00253977272727,"Approved","OW450"
"2023-05-13 10:00",3.0035404040404,"Approved","OW450"
"2023-05-13 11:00",3.00254103535354,"Approved","OW450"
"2023-05-13 12:00",3.00354166666667,"Approved","OW450"
"2023-05-13 13:00",3.0055422979798,"Approved","OW450"
"2023-05-13 14:00",3.00554292929293,"Approved","OW450"
"2023-05-13 15:00",3.00654356060606,"Approved","OW450"
"2023-05-13 16:00",3.00654419191919,"Approved","OW450"
"2023-05-13 17:00",3.01154482323232,"Approved","OW450"
"2023-05-13 18:00",3.01454545454545,"Approved","OW450"
"2023-05-13 19:00",3.01254608585859,"Approved","OW450"
"2023-05-13 20:00",3.01454671717172,"Approved","OW450"
"2023-05-13 21:00",3.01654734848485,"Approved","OW450"
"2023-05-13 22:00",3.01454797979798,"Approved","OW450"
"2023-05-13 23:00",3.01254861111111,"Approved","OW450"
"2023-05-14 00:00",3.01454924242424,"Approved","OW450"
"2023-05-14 01:00",3.01654987373737,"Approved","OW450"
"2023-05-14 02:00",3.0145505050505,"Approved","OW450"
"2023-05-14 03:00",3.01355113636364,"Approved","OW450"
"2023-05-14 04:00",3.01355176767677,"Approved","OW450"
"2023-05-14 05:00",3.0135523989899,"Approved","OW450"
"2023-05-14 06:00",3.01355303030303,"Approved","OW450"
"2023-05-14 07:00",3.01355366161616,"Approved","OW450"
"2023-05-14 08:00",3.01355429292929,"Approved","OW450"
"2023-05-14 09:00",3.01355492424242,"Approved","OW450"
"2023-05-14 10:00",3.01255555555556,"Approved","OW450"
"2023-05-14 11:00",3.01255618686869,"Approved","OW450"
"2023-05-14 12:00",3.01255681818182,"Approved","OW450"
"2023-05-14 13:00",3.01555744949495,"Approved","OW450"
"2023-05-14 14:00",3.01955808080808,"Approved","OW450"
"2023-05-14 15:00",3.01955871212121,"Approved","OW450"
"2023-05-14 16:00",3.01755934343434,"Approved","OW450"
"2023-05-14 17:00",3.01755997474747,"Approved","OW450"
"2023-05-14 18:00",3.01556060606061,"Approved","OW450"
"2023-05-14 19:00",3.01556123737374,"Approved","OW450"
"2023-05-14 20:00",3.01656186868687,"Approved","OW450"
"2023-05-14 21:00",3.0195625,"Approved","OW450"
"2023-05-14 22:00",3.01956313131313,"Approved","OW450"
"2023-05-14 23:00",3.01756376262626,"Approved","OW450"
"2023-05-15 00:00",3.02056439393939,"Approved","OW450"
"2023-05-15 01:00",3.02356502525253,"Approved","OW450"
"2023-05-15 02:00",3.02256565656566,"Approved","OW450"
"2023-05-15 03:00",3.02256628787879,"Approved","OW450"
"2023-05-15 04:00",3.02356691919192,"Approved","OW450"
"2023-05-15 05:00",3.02456755050505,"Approved","OW450"
"2023-05-15 06:00",3.02456818181818,"Approved","OW450"
"2023-05-15 07:00",3.02356881313131,"Approved","OW450"
"2023-05-15 08:00",3.02356944444444,"Approved","OW450"
"2023-05-15 09:00",3.02257007575758,"Approved","OW450"
"2023-05-15 10:00",3.02257070707071,"Approved","OW450"
"2023-05-15 11:00",3.02157133838384,"Approved","OW450"
"2023-05-15 12:00",3.02157196969697,"Approved","OW450"
"2023-05-15 13:00",3.0255726010101,"Approved","OW450"
"2023-05-15 14:00",3.02957323232323,"Approved","OW450"
"2023-05-15 15:00",3.02957386363636,"Approved","OW450"
"2023-05-15 16:00",3.03057449494949,"Approved","OW450"
"2023-05-15 17:00",3.02957512626263,"Approved","OW450"
"2023-05-15 18:00",3.02857575757576,"Approved","OW450"
"2023-05-15 19:00",3.02857638888889,"Approved","OW450"
"2023-05-15 20:00",3.03157702020202,"Approved","OW450"
"2023-05-15 21:00",3.03457765151515,"Approved","OW450"
"2023-05-15 22:00",3.03457828282828,"Approved","OW450"
"2023-05-15 23:00",3.03757891414141,"Approved","OW450"
"2023-05-16 00:00",3.03757954545455,"Approved","OW450"
"2023-05-16 01:00",3.03658017676768,"Approved","OW450"
"2023-05-16 02:00",3.03558080808081,"Approved","OW450"
"2023-05-16 03:00",3.03558143939394,"Approved","OW450"
"2023-05-16 04:00",3.03658207070707,"Approved","OW450"
"2023-05-16 05:00",3.0375827020202,"Approved","OW450"
"2023-05-16 06:00",3.03658333333333,"Approved","OW450"
"2023-05-16 07:00",3.03858396464646,"Approved","OW450"
"2023-05-16 08:00",3.0405845959596,"Approved","OW450"
"2023-05-16 09:00",3.04058522727273,"Approved","OW450"
"2023-05-16 10:00",3.04058585858586,"Approved","OW450"
"2023-05-16 11:00",3.04158648989899,"Approved","OW450"
"2023-05-16 12:00",3.04058712121212,"Approved","OW450"
"2023-05-16 13:00",3.04458775252525,"Approved","OW450"
"2023-05-16 14:00",3.04958838383838,"Approved","OW450"
"2023-05-16 15:00",3.04858901515152,"Approved","OW450"
"2023-05-16 16:00",3.04858964646465,"Approved","OW450"
"2023-05-16 17:00",3.04759027777778,"Approved","OW450"
"2023-05-16 18:00",3.04659090909091,"Approved","OW450"
"2023-05-16 19:00",3.04759154040404,"Approved","OW450"
"2023-05-16 20:00",3.05059217171717,"Approved","OW450"
"2023-05-16 21:00",3.0505928030303,"Approved","OW450"
"2023-05-16 22:00",3.04959343434343,"Approved","OW450"
"2023-05-16 23:00",3.04559406565657,"Approved","OW450"
"2023-05-17 00:00",3.0485946969697,"Approved","OW450"
"2023-05-17 01:00",3.05059532828283,"Approved","OW450"
"2023-05-17 02:00",3.04959595959596,"Approved","OW450"
"2023-05-17 03:00",3.04959659090909,"Approved","OW450"
"2023-05-17 04:00",3.05059722222222,"Approved","OW450"
"2023-05-17 05:00",3.05159785353535,"Approved","OW450"
"2023-05-17 06:00",3.05159848484848,"Approved","OW450"
"2023-05-17 07:00",3.05059911616162,"Approved","OW450"
"2023-05-17 08:00",3.04959974747475,"Approved","OW450"
"2023-05-17 09:00",3.04860037878788,"Approved","OW450"
"2023-05-17 10:00",3.05260101010101,"Approved","OW450"
"2023-05-17 11:00",3.04960164141414,"Approved","OW450"
"2023-05-17 12:00",3.04860227272727,"Approved","OW450"
"2023-05-17 13:00",3.0516029040404,"Approved","OW450"
"2023-05-17 14:00",3.05660353535354,"Approved","OW450"
"2023-05-17 15:00",3.05560416666667,"Approved","OW450"
"2023-05-17 16:00",3.0556047979798,"Approved","OW450"
"2023-05-17 17:00",3.05460542929293,"Approved","OW450"
"2023-05-17 18:00",3.05360606060606,"Approved","OW450"
"2023-05-17 19:00",3.05260669191919,"Approved","OW450"
"2023-05-17 20:00",3.05460732323232,"Approved","OW450"
"2023-05-17 21:00",3.05560795454545,"Approved","OW450"
"2023-05-17 22:00",3.05360858585859,"Approved","OW450"
"2023-05-17 23:00",3.05160921717172,"Approved","OW450"
"2023-05-18 00:00",3.05360984848485,"Approved","OW450"
"2023-05-18 01:00",3.05461047979798,"Approved","OW450"
"2023-05-18 02:00",3.05461111111111,"Approved","OW450"
"2023-05-18 03:00",3.05361174242424,"Approved","OW450"
"2023-05-18 04:00",3.05561237373737,"Approved","OW450"
"2023-05-18 05:00",3.05561300505051,"Approved","OW450"
"2023-05-18 06:00",3.05661363636364,"Approved","OW450"
"2023-05-18 07:00",3.05661426767677,"Approved","OW450"
"2023-05-18 08:00",3.0566148989899,"Approved","OW450"
"2023-05-18 09:00",3.05661553030303,"Approved","OW450"
"2023-05-18 10:00",3.05961616161616,"Approved","OW450"
"2023-05-18 11:00",3.05661679292929,"Approved","OW450"
"2023-05-18 12:00",3.05561742424242,"Approved","OW450"
"2023-05-18 13:00",3.05961805555556,"Approved","OW450"
"2023-05-18 14:00",3.06461868686869,"Approved","OW450"
"2023-05-18 15:00",3.06361931818182,"Approved","OW450"
"2023-05-18 16:00",3.06461994949495,"Approved","OW450"
"2023-05-18 17:00",3.06562058080808,"Approved","OW450"
"2023-05-18 18:00",3.06462121212121,"Approved","OW450"
"2023-05-18 19:00",3.06562184343434,"Approved","OW450"
"2023-05-18 20:00",3.06962247474747,"Approved","OW450"
"2023-05-18 21:00",3.07262310606061,"Approved","OW450"
"2023-05-18 22:00",3.07162373737374,"Approved","OW450"
"2023-05-18 23:00",3.07162436868687,"Approved","OW450"
"2023-05-19 00:00",3.072625,"Approved","OW450"
"2023-05-19 01:00",3.07562563131313,"Approved","OW450"
"2023-05-19 02:00",3.07362626262626,"Approved","OW450"
"2023-05-19 03:00",3.07362689393939,"Approved","OW450"
"2023-05-19 04:00",3.07562752525252,"Approved","OW450"
"2023-05-19 05:00",3.07662815656566,"Approved","OW450"
"2023-05-19 06:00",3.07762878787879,"Approved","OW450"
"2023-05-19 07:00",3.07962941919192,"Approved","OW450"
"2023-05-19 08:00",3.07763005050505,"Approved","OW450"
"2023-05-19 09:00",3.07663068181818,"Approved","OW450"
"2023-05-19 10:00",3.07863131313131,"Approved","OW450"
"2023-05-19 11:00",3.07563194444444,"Approved","OW450"
"2023-05-19 12:00",3.07563257575758,"Approved","OW450"
"2023-05-19 13:00",3.07863320707071,"Approved","OW450"
"2023-05-19 14:00",3.08263383838384,"Approved","OW450"
"2023-05-19 15:00",3.08163446969697,"Approved","OW450"
"2023-05-19 16:00",3.0806351010101,"Approved","OW450"
"2023-05-19 17:00",3.08263573232323,"Approved","OW450"
"2023-05-19 18:00",3.08163636363636,"Approved","OW450"
"2023-05-19 19:00",3.08163699494949,"Approved","OW450"
"2023-05-19 20:00",3.08463762626263,"Approved","OW450"
"2023-05-19 21:00",3.08763825757576,"Approved","OW450"
"2023-05-19 22:00",3.08863888888889,"Approved","OW450"
"2023-05-19 23:00",3.08563952020202,"Approved","OW450"
"2023-05-20 00:00",3.08664015151515,"Approved","OW450"
"2023-05-20 01:00",3.08764078282828,"Approved","OW450"
"2023-05-20 02:00",3.08464141414141,"Approved","OW450"
"2023-05-20 03:00",3.08264204545455,"Approved","OW450"
"2023-05-20 04:00",3.08564267676768,"Approved","OW450"
"2023-05-20 05:00",3.08664330808081,"Approved","OW450"
"2023-05-20 06:00",3.08864393939394,"Approved","OW450"
"2023-05-20 07:00",3.08864457070707,"Approved","OW450"
"2023-05-20 08:00",3.0866452020202,"Approved","OW450"
"2023-05-20 09:00",3.08464583333333,"Approved","OW450"
"2023-05-20 10:00",3.08764646464646,"Approved","OW450"
"2023-05-20 11:00",3.0836470959596,"Approved","OW450"
"2023-05-20 12:00",3.08364772727273,"Approved","OW450"
"2023-05-20 13:00",3.08664835858586,"Approved","OW450"
"2023-05-20 14:00",3.09264898989899,"Approved","OW450"
"2023-05-20 15:00",3.09564962121212,"Approved","OW450"
"2023-05-20 16:00",3.09565025252525,"Approved","OW450"
"2023-05-20 17:00",3.09465088383838,"Approved","OW450"
"2023-05-20 18:00",3.09265151515152,"Approved","OW450"
"2023-05-20 19:00",3.09265214646465,"Approved","OW450"
"2023-05-20 20:00",3.09465277777778,"Approved","OW450"
"2023-05-20 21:00",3.09765340909091,"Approved","OW450"
"2023-05-20 22:00",3.09965404040404,"Approved","OW450"
"2023-05-20 23:00",3.09765467171717,"Approved","OW450"
"2023-05-21 00:00",3.0976553030303,"Approved","OW450"
"2023-05-21 01:00",3.10065593434343,"Approved","OW450"
"2023-05-21 02:00",3.10065656565657,"Approved","OW450"
"2023-05-21 03:00",3.0996571969697,"Approved","OW450"
"2023-05-21 04:00",3.09865782828283,"Approved","OW450"
"2023-05-21 05:00",3.09765845959596,"Approved","OW450"
"2023-05-21 06:00",3.09665909090909,"Approved","OW450"
"2023-05-21 07:00",3.09565972222222,"Approved","OW450"
"2023-05-21 08:00",3.09366035353535,"Approved","OW450"
"2023-05-21 09:00",3.09366098484848,"Approved","OW450"
"2023-05-21 10:00",3.09666161616162,"Approved","OW450"
"2023-05-21 11:00",3.09266224747475,"Approved","OW450"
"2023-05-21 12:00",3.09266287878788,"Approved","OW450"
"2023-05-21 13:00",3.09566351010101,"Approved","OW450"
"2023-05-21 14:00",3.10166414141414,"Approved","OW450"
"2023-05-21 15:00",3.10366477272727,"Approved","OW450"
"2023-05-21 16:00",3.1046654040404,"Approved","OW450"
"2023-05-21 17:00",3.10366603535354,"Approved","OW450"
"2023-05-21 18:00",3.10366666666667,"Approved","OW450"
"2023-05-21 19:00",3.1026672979798,"Approved","OW450"
"2023-05-21 20:00",3.10466792929293,"Approved","OW450"
"2023-05-21 21:00",3.10966856060606,"Approved","OW450"
"2023-05-21 22:00",3.10966919191919,"Approved","OW450"
"2023-05-21 23:00",3.10966982323232,"Approved","OW450"
"2023-05-22 00:00",3.10967045454545,"Approved","OW450"
"2023-05-22 01:00",3.11167108585859,"Approved","OW450"
"2023-05-22 02:00",3.11267171717172,"Approved","OW450"
"2023-05-22 03:00",3.11067234848485,"Approved","OW450"
"2023-05-22 04:00",3.10967297979798,"Approved","OW450"
"2023-05-22 05:00",3.10867361111111,"Approved","OW450"
"2023-05-22 06:00",3.10667424242424,"Approved","OW450"
"2023-05-22 07:00",3.10567487373737,"Approved","OW450"
"2023-05-22 08:00",3.10567550505051,"Approved","OW450"
"2023-05-22 09:00",3.10467613636364,"Approved","OW450"
"2023-05-22 10:00",3.10467676767677,"Approved","OW450"
"2023-05-22 11:00",3.1036773989899,"Approved","OW450"
"2023-05-22 12:00",3.10367803030303,"Approved","OW450"
"2023-05-22 13:00",3.10667866161616,"Approved","OW450"
"2023-05-22 14:00",3.11067929292929,"Approved","OW450"
"2023-05-22 15:00",3.10867992424242,"Approved","OW450"
"2023-05-22 16:00",3.10768055555556,"Approved","OW450"
"2023-05-22 17:00",3.10668118686869,"Approved","OW450"
"2023-05-22 18:00",3.10668181818182,"Approved","OW450"
"2023-05-22 19:00",3.10368244949495,"Approved","OW450"
"2023-05-22 20:00",3.10168308080808,"Approved","OW450"
"2023-05-22 21:00",3.10068371212121,"Approved","OW450"
"2023-05-22 22:00",3.09868434343434,"Approved","OW450"
"2023-05-22 23:00",3.09768497474747,"Approved","OW450"
"2023-05-23 00:00",3.09568560606061,"Approved","OW450"
"2023-05-23 01:00",3.09368623737374,"Approved","OW450"
"2023-05-23 02:00",3.09068686868687,"Approved","OW450"
"2023-05-23 03:00",3.0896875,"Approved","OW450"
"2023-05-23 04:00",3.08968813131313,"Approved","OW450"
"2023-05-23 05:00",3.08868876262626,"Approved","OW450"
"2023-05-23 06:00",3.08768939393939,"Approved","OW450"
"2023-05-23 07:00",3.08769002525253,"Approved","OW450"
"2023-05-23 08:00",3.08869065656566,"Approved","OW450"
"2023-05-23 09:00",3.08869128787879,"Approved","OW450"
"2023-05-23 10:00",3.08769191919192,"Approved","OW450"
"2023-05-23 11:00",3.08869255050505,"Approved","OW450"
"2023-05-23 12:00",3.08769318181818,"Approved","OW450"
"2023-05-23 13:00",3.08769381313131,"Approved","OW450"
"2023-05-23 14:00",3.08869444444444,"Approved","OW450"
"2023-05-23 15:00",3.08869507575758,"Approved","OW450"
"2023-05-23 16:00",3.08869570707071,"Approved","OW450"
"2023-05-23 17:00",3.08869633838384,"Approved","OW450"
"2023-05-23 18:00",3.09069696969697,"Approved","OW450"
"2023-05-23 19:00",3.0916976010101,"Approved","OW450"
"2023-05-23 20:00",3.09669823232323,"Approved","OW450"
"2023-05-23 21:00",3.10169886363636,"Approved","OW450"
"2023-05-23 22:00",3.1016994949495,"Approved","OW450"
"2023-05-23 23:00",3.10070012626263,"Approved","OW450"
"2023-05-24 00:00",3.09870075757576,"Approved","OW450"
"2023-05-24 01:00",3.09870138888889,"Approved","OW450"
"2023-05-24 02:00",3.09770202020202,"Approved","OW450"
"2023-05-24 03:00",3.09670265151515,"Approved","OW450"
"2023-05-24 04:00",3.09770328282828,"Approved","OW450"
"2023-05-24 05:00",3.09670391414141,"Approved","OW450"
"2023-05-24 06:00",3.09570454545455,"Approved","OW450"
"2023-05-24 07:00",3.09570517676768,"Approved","OW450"
"2023-05-24 08:00",3.09570580808081,"Approved","OW450"
"2023-05-24 09:00",3.09570643939394,"Approved","OW450"
"2023-05-24 10:00",3.09670707070707,"Approved","OW450"
"2023-05-24 11:00",3.0977077020202,"Approved","OW450"
"2023-05-24 12:00",3.09870833333333,"Approved","OW450"
"2023-05-24 13:00",3.10070896464646,"Approved","OW450"
"2023-05-24 14:00",3.1027095959596,"Approved","OW450"
"2023-05-24 15:00",3.10271022727273,"Approved","OW450"
"2023-05-24 16:00",3.10171085858586,"Approved","OW450"
"2023-05-24 17:00",3.10071148989899,"Approved","OW450"
"2023-05-24 18:00",3.10171212121212,"Approved","OW450"
"2023-05-24 19:00",3.10271275252525,"Approved","OW450"
"2023-05-24 20:00",3.10371338383838,"Approved","OW450"